Torna al catalogo

COSMOS 2500

GLONASS

AttivoNavigazioneMEO
NORAD 40001·PAYLOAD·🇷🇺 Russia

Lanciato Jun 14, 2014 da Plesetsk Cosmodrome

Loading…

Prossimi Passaggi (prossime 24 ore)

TLE

AggiornatoSource: CelesTrak SupGP

Epoca: Sep 8, 2026, 23:59 UTC

1 40001C 14032A   26251.99979167  .00000000  00000+0  00000+0 0  2517
2 40001  65.1788 310.8246 0009531 204.2730 128.7433  2.13105753    18

Traccia COSMOS 2500 in tempo reale con AllMySat

Download on the App Store